Total_Precipitation_Accumulation
0.10 0.13 0.15 0.15 0.11 0.04 0.01 0.00 0.01 0.02 0.01 0.02 0.03 0.04 0.04 0.05 0.04 0.07 0.04 0.03 0.03 0.06 0.11 0.19 0.22 0.23 0.22 0.21 0.20 0.19 0.23 0.29 0.34 0.38 0.42 0.39 0.36 0.35 0.36 0.38 0.34 0.36 0.33 0.34 0.27 0.21 0.16 0.14 0.11
0.15 0.21 0.27 0.27 0.12 0.03 0.01 0.00 0.01 0.02 0.02 0.02 0.03 0.05 0.09 0.12 0.07 0.05 0.05 0.05 0.05 0.07 0.11 0.16 0.23 0.25 0.24 0.23 0.23 0.22 0.25 0.30 0.35 0.40 0.42 0.40 0.40 0.42 0.40 0.38 0.33 0.32 0.27 0.25 0.19 0.14 0.12 0.10 0.08
0.25 0.36 0.43 0.31 0.13 0.03 0.01 0.00 0.01 0.01 0.02 0.03 0.05 0.08 0.16 0.24 0.14 0.08 0.05 0.08 0.09 0.12 0.14 0.22 0.29 0.30 0.28 0.25 0.26 0.27 0.27 0.32 0.37 0.45 0.49 0.47 0.47 0.47 0.42 0.35 0.29 0.25 0.21 0.20 0.16 0.10 0.09 0.07 0.05
0.40 0.59 0.54 0.31 0.13 0.04 0.01 0.00 0.00 0.01 0.03 0.04 0.06 0.13 0.21 0.24 0.24 0.17 0.10 0.13 0.16 0.19 0.22 0.30 0.37 0.39 0.36 0.31 0.28 0.30 0.32 0.34 0.37 0.46 0.51 0.50 0.49 0.50 0.43 0.36 0.26 0.20 0.17 0.17 0.14 0.11 0.10 0.08 0.06
0.62 0.74 0.54 0.30 0.11 0.04 0.02 0.01 0.01 0.01 0.03 0.04 0.08 0.17 0.27 0.27 0.32 0.36 0.27 0.24 0.26 0.31 0.37 0.40 0.44 0.45 0.45 0.42 0.36 0.32 0.34 0.36 0.40 0.47 0.48 0.51 0.49 0.50 0.50 0.41 0.25 0.17 0.16 0.18 0.16 0.14 0.13 0.11 0.09
0.97 0.82 0.55 0.28 0.09 0.03 0.02 0.01 0.01 0.02 0.03 0.05 0.10 0.23 0.34 0.38 0.48 0.57 0.54 0.45 0.43 0.46 0.55 0.57 0.58 0.52 0.48 0.46 0.47 0.42 0.40 0.41 0.46 0.53 0.51 0.52 0.52 0.50 0.51 0.44 0.30 0.20 0.18 0.19 0.18 0.17 0.16 0.14 0.12
1.03 0.81 0.49 0.23 0.08 0.03 0.02 0.02 0.02 0.02 0.04 0.07 0.09 0.28 0.38 0.48 0.63 0.79 0.87 0.80 0.73 0.76 0.80 0.74 0.69 0.58 0.54 0.48 0.47 0.47 0.46 0.46 0.51 0.56 0.53 0.51 0.49 0.49 0.48 0.42 0.31 0.26 0.23 0.23 0.22 0.20 0.18 0.16 0.14
1.00 1.00 0.52 0.25 0.13 0.05 0.04 0.05 0.04 0.03 0.05 0.07 0.12 0.26 0.36 0.48 0.72 0.99 1.16 1.22 1.09 1.05 1.08 0.99 0.86 0.77 0.67 0.58 0.47 0.45 0.45 0.44 0.46 0.46 0.40 0.38 0.41 0.45 0.41 0.33 0.27 0.24 0.23 0.22 0.22 0.20 0.19 0.17 0.14
1.10 1.19 0.61 0.25 0.15 0.09 0.08 0.09 0.07 0.06 0.08 0.13 0.18 0.21 0.32 0.52 0.84 1.19 1.43 1.52 1.42 1.27 1.26 1.25 1.12 0.95 0.83 0.68 0.52 0.47 0.45 0.42 0.41 0.38 0.31 0.30 0.35 0.39 0.33 0.24 0.20 0.24 0.25 0.23 0.21 0.20 0.20 0.17 0.12
1.19 0.98 0.45 0.19 0.17 0.17 0.17 0.16 0.13 0.14 0.17 0.22 0.30 0.33 0.49 0.68 0.94 1.18 1.40 1.46 1.41 1.32 1.28 1.31 1.23 1.14 1.02 0.82 0.62 0.57 0.52 0.45 0.39 0.34 0.32 0.30 0.31 0.35 0.30 0.26 0.22 0.23 0.25 0.24 0.25 0.24 0.23 0.20 0.14
0.84 0.54 0.30 0.23 0.25 0.29 0.28 0.21 0.20 0.22 0.19 0.17 0.24 0.40 0.64 0.85 1.00 1.12 1.26 1.39 1.39 1.44 1.46 1.42 1.36 1.24 1.20 1.08 0.79 0.60 0.55 0.53 0.49 0.39 0.35 0.36 0.36 0.38 0.37 0.33 0.29 0.26 0.22 0.21 0.21 0.23 0.20 0.18 0.17
0.54 0.34 0.34 0.36 0.34 0.39 0.39 0.31 0.28 0.27 0.21 0.17 0.24 0.44 0.65 0.85 0.97 1.06 1.09 1.26 1.43 1.55 1.53 1.51 1.52 1.38 1.23 1.15 1.00 0.79 0.62 0.55 0.52 0.46 0.40 0.42 0.41 0.37 0.34 0.31 0.28 0.30 0.26 0.23 0.22 0.21 0.18 0.17 0.17
0.44 0.35 0.35 0.44 0.49 0.47 0.49 0.46 0.40 0.31 0.27 0.29 0.39 0.54 0.70 0.87 1.03 1.13 1.14 1.17 1.32 1.51 1.59 1.55 1.56 1.49 1.33 1.21 1.08 0.95 0.79 0.66 0.64 0.60 0.52 0.46 0.44 0.39 0.34 0.32 0.34 0.35 0.34 0.31 0.27 0.24 0.23 0.21 0.20
0.41 0.40 0.41 0.50 0.56 0.53 0.59 0.58 0.55 0.40 0.34 0.40 0.51 0.60 0.76 0.89 1.03 1.18 1.21 1.18 1.13 1.31 1.51 1.56 1.56 1.58 1.52 1.32 1.17 1.01 0.85 0.72 0.71 0.68 0.61 0.59 0.55 0.53 0.47 0.42 0.38 0.37 0.37 0.38 0.35 0.33 0.32 0.28 0.26
0.44 0.55 0.57 0.58 0.63 0.63 0.68 0.74 0.59 0.44 0.41 0.45 0.51 0.59 0.75 0.86 0.96 1.10 1.20 1.25 1.14 1.20 1.41 1.45 1.51 1.59 1.59 1.50 1.37 1.14 0.98 0.80 0.70 0.69 0.67 0.66 0.62 0.60 0.59 0.55 0.51 0.47 0.46 0.45 0.46 0.45 0.45 0.39 0.34
0.63 0.70 0.67 0.55 0.61 0.70 0.82 0.74 0.49 0.49 0.48 0.46 0.46 0.57 0.70 0.83 0.90 1.02 1.18 1.34 1.38 1.31 1.39 1.44 1.45 1.59 1.59 1.58 1.58 1.44 1.22 0.98 0.83 0.79 0.82 0.77 0.72 0.69 0.66 0.61 0.51 0.46 0.53 0.55 0.51 0.48 0.46 0.40 0.33
0.82 0.69 0.51 0.51 0.52 0.64 0.73 0.60 0.48 0.49 0.49 0.41 0.40 0.49 0.62 0.76 0.87 0.95 1.09 1.25 1.35 1.38 1.42 1.55 1.51 1.57 1.69 1.69 1.71 1.63 1.48 1.25 1.08 0.93 0.84 0.84 0.82 0.78 0.77 0.71 0.65 0.59 0.54 0.55 0.57 0.52 0.46 0.42 0.38
0.57 0.49 0.40 0.43 0.47 0.50 0.54 0.45 0.47 0.47 0.47 0.41 0.39 0.40 0.49 0.66 0.85 0.87 1.01 1.21 1.33 1.41 1.49 1.61 1.64 1.66 1.81 1.93 1.94 1.92 1.68 1.42 1.26 1.10 0.96 0.91 0.93 0.89 0.84 0.81 0.80 0.81 0.75 0.64 0.58 0.55 0.51 0.45 0.46
0.34 0.35 0.35 0.30 0.35 0.41 0.43 0.41 0.45 0.44 0.42 0.43 0.42 0.40 0.42 0.54 0.76 0.83 0.89 1.12 1.31 1.39 1.48 1.57 1.67 1.73 1.85 1.89 1.88 1.87 1.74 1.54 1.36 1.23 1.12 1.06 1.05 1.10 1.04 0.94 0.94 0.94 0.87 0.78 0.73 0.70 0.65 0.60 0.59
0.42 0.41 0.40 0.33 0.31 0.40 0.42 0.40 0.37 0.34 0.39 0.43 0.42 0.43 0.45 0.50 0.62 0.71 0.76 0.86 1.03 1.16 1.33 1.50 1.61 1.73 1.73 1.73 1.87 1.99 2.09 1.93 1.62 1.45 1.33 1.20 1.17 1.18 1.14 1.10 1.07 1.04 1.03 1.01 0.97 0.94 0.89 0.82 0.82
0.45 0.37 0.33 0.33 0.36 0.40 0.40 0.40 0.32 0.31 0.37 0.41 0.41 0.42 0.42 0.42 0.48 0.55 0.62 0.77 0.90 1.01 1.18 1.42 1.56 1.69 1.72 1.76 1.99 2.16 2.28 2.15 1.85 1.47 1.29 1.27 1.29 1.31 1.24 1.21 1.23 1.17 1.11 1.07 1.06 1.05 1.04 0.98 0.94
0.45 0.26 0.25 0.28 0.41 0.46 0.39 0.53 0.36 0.34 0.37 0.40 0.43 0.42 0.38 0.37 0.40 0.45 0.54 0.63 0.74 0.89 1.02 1.15 1.33 1.52 1.69 1.75 1.80 1.88 1.96 1.93 1.72 1.58 1.47 1.48 1.49 1.48 1.41 1.36 1.34 1.30 1.24 1.13 1.11 1.10 1.06 1.04 0.99
0.39 0.26 0.29 0.30 0.40 0.44 0.32 0.47 0.40 0.25 0.29 0.37 0.45 0.46 0.42 0.41 0.42 0.44 0.52 0.62 0.66 0.77 0.98 1.08 1.15 1.35 1.56 1.68 1.74 1.85 1.83 1.85 1.94 1.87 1.75 1.64 1.60 1.57 1.51 1.45 1.43 1.36 1.30 1.24 1.24 1.21 1.18 1.12 1.06
0.40 0.40 0.44 0.42 0.55 0.57 0.27 0.37 0.40 0.28 0.29 0.32 0.34 0.40 0.44 0.45 0.52 0.55 0.59 0.61 0.61 0.65 0.85 1.06 1.08 1.17 1.32 1.53 1.72 1.78 1.71 1.75 1.82 1.82 1.76 1.72 1.71 1.68 1.58 1.49 1.43 1.37 1.33 1.30 1.29 1.32 1.28 1.24 1.18
0.49 0.60 0.85 0.89 0.79 0.43 0.19 0.29 0.37 0.28 0.30 0.30 0.30 0.33 0.39 0.48 0.52 0.57 0.60 0.55 0.55 0.59 0.70 0.88 1.01 1.12 1.18 1.33 1.48 1.63 1.69 1.69 1.73 1.76 1.72 1.64 1.56 1.48 1.47 1.47 1.43 1.39 1.32 1.30 1.31 1.33 1.30 1.26 1.21
0.47 0.45 0.58 0.58 0.37 0.24 0.21 0.30 0.33 0.28 0.26 0.23 0.23 0.27 0.34 0.40 0.42 0.46 0.53 0.55 0.55 0.56 0.61 0.66 0.73 0.82 0.88 0.97 1.08 1.21 1.40 1.50 1.48 1.54 1.55 1.51 1.43 1.41 1.43 1.43 1.44 1.45 1.43 1.38 1.36 1.35 1.33 1.31 1.22
0.49 0.41 0.26 0.43 0.36 0.32 0.25 0.23 0.25 0.22 0.22 0.22 0.24 0.28 0.34 0.40 0.43 0.44 0.51 0.54 0.57 0.59 0.62 0.62 0.62 0.66 0.76 0.79 0.85 0.89 1.04 1.18 1.24 1.31 1.30 1.24 1.22 1.29 1.31 1.31 1.33 1.34 1.36 1.35 1.35 1.32 1.28 1.28 1.25
0.34 0.32 0.39 0.64 0.55 0.41 0.23 0.20 0.31 0.26 0.21 0.23 0.28 0.30 0.35 0.45 0.43 0.42 0.48 0.51 0.53 0.58 0.61 0.60 0.59 0.60 0.70 0.77 0.82 0.83 0.87 0.94 1.07 1.16 1.10 1.07 1.08 1.12 1.16 1.15 1.16 1.18 1.19 1.22 1.26 1.22 1.18 1.17 1.13
0.25 0.31 0.36 0.42 0.38 0.38 0.24 0.26 0.30 0.29 0.25 0.26 0.29 0.33 0.41 0.44 0.44 0.45 0.48 0.52 0.55 0.59 0.59 0.56 0.59 0.60 0.64 0.69 0.70 0.71 0.74 0.79 0.85 0.93 0.96 0.95 0.98 0.97 0.98 1.00 1.01 1.01 1.03 1.07 1.11 1.08 1.05 1.08 1.07
0.20 0.20 0.25 0.44 0.30 0.23 0.23 0.28 0.27 0.25 0.24 0.24 0.26 0.30 0.37 0.40 0.44 0.43 0.44 0.48 0.53 0.54 0.50 0.48 0.54 0.57 0.61 0.64 0.62 0.62 0.64 0.67 0.70 0.73 0.79 0.80 0.83 0.86 0.88 0.90 0.91 0.87 0.85 0.89 0.94 0.96 0.95 0.96 0.97